Location: Gorze? G�rny
(49.8500°N, 19.5000°E)
Time: 04:00:40
(UTC+00:00)

Cosmos 2315 Rocket - Pass Details

Date: 13 May 2021
Orbit: 965 x 1003 km, 82.9° (Epoch: 23 June)

Event Time Altitude Azimuth Distance (km) Brightness Sun altitude
Rises 18:52:10 0° 173° (S) 3,712 6.6 -5.4°
Reaches altitude 10° 18:54:43 10° 170° (S) 2,768 5.9 -5.7°
Maximum altitude 19:00:57 59° 93° (E) 1,153 4.2 -6.5°
Drops below altitude 10° 19:07:12 10° 16° (NNE) 2,785 6.7 -7.2°
Sets 19:09:46 0° 13° (NNE) 3,736 7.5 -7.6°
